Notices

What's New in latest Release from April 7th, 2021:

- Updated Glossary, including Speed of Maximum Gust, and Total Hourly Precipitation

- Updated national and regional climate services offices contacts and prices information

- Addition of station inventory lists for 1981-2010, 1971-2000, and 1961-1990 Normals.

If you haven't already, please take our survey and provide feedback about our website: https://eccc.sondage-survey.ca/f/LanguageSelection.aspx?s=442ca660-fcf1-47c0-95a9-59707d6fd709

Hourly Data Report for April 15, 2021

WIARTON A
ONTARIO
Current Station Operator: NAVCAN

44°44'39.000" N
81°06'31.000" W
221.90 m
6119499
71633
YVV

Download Data

Hourly Data (April 2021)
Hourly Data Report for April 15, 2021
TIME
LST
Temp Definition
°C
Dew Point Definition
°C
Rel Hum Definition
%
Precip. Amount Definition
mm

Wind Dir Definition
10's deg

Wind Spd Definition
km/h
Visibility Definition
km
Stn Press Definition
kPa
Hmdx Definition


Wind Chill Definition


Weather Definition


00:00 2.3 1.1 92   28 9 12.9 98.54     Snow
01:00 2.2 1.1 93   27 8 16.1 98.49     Snow
02:00 2.2 1.1 92   26 8 19.3 98.42     LegendNANA
03:00 2.4 0.7 89   26 9 19.3 98.37     LegendNANA
04:00 2.2 0.3 87   26 8 24.1 98.35     Cloudy
05:00 2.2 0.7 90   24 8 19.3 98.33     LegendNANA
06:00 1.9 0.5 90   24 8 19.3 98.32     LegendNANA
07:00 2.2 1.1 93   24 9 19.3 98.34     Cloudy
08:00 2.6 1.2 90   24 9 16.1 98.32     Rain
09:00 3.0 2.0 93   25 11 19.3 98.29     LegendNANA
10:00 3.0 1.6 90   25 14 19.3 98.29     Cloudy
11:00 3.7 1.7 87   24 7 19.3 98.26     LegendNANA
12:00 5.2 1.6 78   24 9 24.1 98.22     LegendNANA
13:00 4.1 2.0 86   30 12 24.1 98.22     Cloudy
14:00 4.3 2.7 89   28 13 19.3 98.21     LegendNANA
15:00 5.1 2.1 81   27 10 19.3 98.20     LegendNANA
16:00 5.3 3.1 85   26 10 24.1 98.21     Cloudy
17:00 5.8 3.4 85   27 10 24.1 98.22     LegendNANA
18:00 4.8 2.9 88   28 11 24.1 98.25     LegendNANA
19:00 4.5 3.1 91   28 4 19.3 98.28     Cloudy
20:00 4.4 1.5 82   36 6 24.1 98.30     LegendNANA
21:00 4.3 1.8 83   31 5 24.1 98.29     LegendNANA
22:00 3.5 1.5 86   32 6 24.1 98.26     Cloudy
23:00 3.4 2.0 90   31 12 24.1 98.22     LegendNANA

Notes on Data Quality.

Legend

  • E = Estimated
  • M = Missing
  • NA = Not Available*
  • [empty] = Indicates an unobserved value
Date modified: